Location: Voyageurs National Park
(48.5020°N, 92.9292°W)
Time: 13:11:02
(UTC-06:00)

Daily predictions for brighter satellites

Satellite Brightness Start Highest point End
(mag) Time Altitude Azimuth Time Altitude Azimuth Time Altitude Azimuth
NOSS 3-4 (A) 3.7 18:00:17 10° SW 18:06:38 81° NW 18:13:17 10° NE
NOSS 3-4 (C) 3.7 18:00:24 10° SW 18:06:45 82° NW 18:13:24 10° NE
SL-8 R/B 4.5 18:04:36 10° W 18:09:18 53° SSW 18:14:00 10° SE
Cosmos 1833 Rocket 2.8 18:03:52 10° SSW 18:09:31 90° WNW 18:15:11 10° NNE
Cosmos 1745 Rocket 4.4 18:05:44 10° SSE 18:11:35 41° E 18:17:25 10° NNE
OPS 6432 4.1 18:10:54 10° SW 18:14:11 88° SE 18:17:12 10° NE
CZ-4 R/B 3.7 18:10:32 10° SSW 18:14:11 31° W 18:17:56 10° NNW
ATLAS 2AS CENTAUR R/B 4.3 18:07:35 10° W 18:14:44 34° NNW 18:22:01 10° NE
NOSS 2-2 (E) 4.4 18:11:12 10° S 18:14:50 31° ESE 18:19:02 10° NE
H-2A R/B 4.3 18:13:45 10° E 18:16:04 16° ENE 18:18:23 10° NNE
Cosmos 1812 3.3 18:18:01 10° N 18:21:37 35° ENE 18:25:10 10° SE
ATLAS CENTAUR R/B 2.0 18:17:50 10° SW 18:22:24 64° NW 18:26:41 10° NE
FENGYUN 3A 4.2 18:19:32 10° SE 18:24:29 38° ENE 18:29:28 10° N
Cosmos 44 Rocket 3.3 18:23:03 10° NW 18:27:52 85° SW 18:32:34 10° SE
USA 215 3.9 18:21:57 10° ENE 18:28:11 49° NNW 18:34:24 10° W
Okean 3 4.0 18:24:51 10° NNW 18:29:09 66° W 18:33:23 10° S
NOSS 2-2 (D) 4.1 18:30:38 10° S 18:34:27 39° ESE 18:38:53 10° NE
Meteor 1-18 Rocket 4.1 18:36:02 10° N 18:41:36 70° ENE 18:47:09 10° SSE
Cosmos 2360 Rocket 2.9 18:37:20 10° NNW 18:42:28 33° NE 18:46:58 13° ESE
Cosmos 1980 Rocket 3.3 18:37:56 10° NW 18:43:24 49° WSW 18:48:51 10° S
Cosmos 1461 3.0 18:41:02 10° NNW 18:44:56 51° NE 18:48:30 12° ESE
Cosmos 2219 Rocket 3.9 18:43:36 10° N 18:46:45 15° NE 18:48:55 12° ENE
SKYMED 2 4.1 18:44:08 10° N 18:48:27 64° WNW 18:52:44 10° SSW
Tiangong 2 2.6 18:46:32 10° WSW 18:49:13 27° S 18:51:10 15° SE
Cosmos 1992 Rocket 4.3 18:44:16 10° NNW 18:49:29 72° WSW 18:54:41 10° SSE
Cosmos 1975 Rocket 3.5 18:45:30 10° NNW 18:49:48 65° W 18:54:04 10° S
SJ-6B 2.8 18:46:21 10° SSE 18:50:23 83° E 18:54:23 10° NNW
NOSS 2-2 (C) 3.7 18:47:31 10° SSW 18:51:31 55° SE 18:56:00 11° NE
Cosmos 407 Rocket 4.0 18:49:48 10° SSE 18:54:33 36° ESE 18:59:22 10° NE
Helios 1A 3.8 18:52:22 15° ESE 18:55:03 29° ENE 18:58:39 10° N
Meteor 1-14 Rocket 4.4 18:50:38 10° S 18:56:35 90° ESE 19:02:38 10° NNE
METEOR-M 4.5 18:53:22 10° S 18:58:41 70° WSW 19:04:03 10° NNW
Cosmos 2333 Rocket 3.9 18:56:36 10° N 19:00:03 16° NE 19:01:48 14° NE
Cosmos 44 3.4 18:56:33 10° NW 19:01:01 66° SW 19:05:18 10° SSE
FengYun 1-2 T 4.1 18:56:28 10° SSE 19:01:55 73° ENE 19:07:26 10° NNW
Nadezhda 1 Rocket 4.1 18:56:20 10° N 19:02:28 80° W 19:08:31 10° S
SAR-Lupe-4 4.1 19:01:42 20° SE 19:03:41 37° ENE 19:07:01 10° N
GEOS 3 Rocket 3.6 19:00:18 10° NE 19:05:31 64° SE 19:10:45 10° SSW
Cosmos 2181 Rocket 4.1 19:01:42 10° N 19:07:46 54° ENE 19:13:54 10° SSE
Resurs 01 Rocket 1.5 19:03:49 10° SSE 19:08:12 68° ENE 19:12:36 10° N
Cosmos 1536 Rocket 3.5 19:04:06 10° N 19:08:33 66° ENE 19:13:00 10° SSE
Meteor 1-13 Rocket 4.2 19:06:23 10° N 19:11:49 55° ENE 19:17:16 10° SSE
Cosmos 2082 Rocket 3.8 19:07:06 10° WSW 19:12:13 33° NW 19:17:22 10° NNE
SL-16 R/B 2.4 19:06:42 10° NNW 19:12:24 76° WSW 19:18:03 10° SSE
Cosmos 1025 Rocket 4.4 19:09:49 10° NNE 19:12:30 21° NE 19:12:30 21° NE
RESURS DK-1 4.4 19:10:51 10° WSW 19:14:25 27° NW 19:17:59 10° N
Okean 1 3.3 19:11:35 10° N 19:15:40 88° WSW 19:19:43 10° S
Cosmos 1190 Rocket 3.9 19:11:55 10° S 19:17:01 63° ESE 19:22:10 10° NNE
DNEPR-1 R/B 3.8 19:12:45 10° NW 19:17:05 67° SW 19:20:47 13° SSE
Meteor 1-20 Rocket 4.2 19:12:11 10° S 19:18:00 85° E 19:23:54 10° NNE
Spot 2 Rocket 3.5 19:24:06 10° SSE 19:29:09 82° WSW 19:34:16 10° NNW
Cosmos 1633 4.2 19:27:03 10° S 19:36:17 - NNE 19:28:24 21° SSE
Cosmos 1340 2.5 19:27:15 10° N 19:31:04 83° ENE 19:33:20 23° SSE
Cosmos 2322 Rocket 3.0 19:27:01 10° NW 19:32:28 52° WSW 19:37:53 10° S
USA 186 3.3 19:34:35 24° N 19:34:35 24° N 19:35:58 10° N
Cosmos 2184 Rocket 4.5 19:28:35 10° SSE 19:34:14 36° E 19:39:52 10° NNE
CZ-2D R/B 3.1 19:32:26 23° SSE 19:34:42 84° ENE 19:38:33 10° NNW
Cosmos 2074 Rocket 4.4 19:31:15 10° SSE 19:36:55 38° E 19:42:39 10° NNE
Cosmos 1238 Rocket 2.2 19:34:42 10° N 19:37:41 69° N 19:37:41 69° N
Resurs 1-3 3.8 19:33:51 10° S 19:38:14 73° WSW 19:42:38 10° NNW
Cosmos 1709 Rocket 3.9 19:32:44 10° S 19:38:59 84° E 19:45:12 10° N
Cosmos 2322 3.6 19:34:14 10° NNW 19:39:59 70° ENE 19:42:35 33° SE
Genesis I 4.2 19:37:57 10° NNW 19:41:04 33° NNE 19:41:04 33° NNE
ALOS 3.3 19:40:03 10° S 19:44:31 45° W 19:49:03 10° NNW
Envisat 3.1 19:44:45 47° E 19:45:13 49° ENE 19:50:08 10° N
Cosmos 1954 Rocket 4.0 19:41:16 10° S 19:46:18 55° ESE 19:47:49 41° NE
Meteor 2-4 Rocket 3.6 19:41:40 10° N 19:47:20 67° ENE 19:49:50 33° SSE
Cosmos 1300 Rocket 3.4 19:43:40 10° S 19:48:03 73° E 19:52:30 10° NNE
Meteor 1-11 Rocket 3.7 19:43:31 10° S 19:49:13 67° E 19:55:05 10° NNE
COSMOS 2428 2.9 19:43:59 10° NNW 19:49:31 48° NE 19:50:12 46° ENE
H-2A R/B 3.6 19:46:25 10° S 19:50:00 48° W 19:53:39 10° NNW
Cosmos 2237 4.2 19:44:50 10° NNW 19:50:32 60° ENE 19:51:44 49° ESE
USA 229 DEB 4.0 19:44:16 10° NW 19:51:11 51° NE 19:53:17 40° E
USA 229 4.1 19:44:23 10° NW 19:51:17 51° NE 19:53:22 40° E
Cosmos 2285 Rocket 4.3 19:46:19 10° NNW 19:52:30 46° ENE 19:53:24 43° E
Spot 1 4.1 19:52:14 30° S 19:54:09 69° WSW 19:58:16 10° NNW
Cosmos 2333 4.4 19:50:43 10° NNW 19:56:15 48° NE 19:56:34 47° ENE
ATLAS CENTAUR R/B 4.0 19:59:21 10° WNW 20:02:11 16° NNW 20:04:41 11° N
BREEZE-M DEB (TANK) 3.3 20:01:50 10° W 20:04:22 40° SSW 20:04:22 40° SSW
ERS-1 Rocket 3.7 20:05:50 39° NNE 20:05:50 39° NNE 20:09:25 10° N
Cosmos 1818 3.4 19:59:28 10° SSW 20:04:53 71° SE 20:05:17 68° E
Cosmos 2237 Rocket 3.4 20:02:19 10° NNW 20:06:20 27° NNE 20:06:20 27° NNE
ATLAS 2AS CENTAUR R/B 4.4 20:01:29 10° NW 20:08:15 28° N 20:11:55 20° NE
USA 215 3.9 20:08:20 33° NE 20:10:30 44° N 20:16:36 10° WNW
Okean 1-7 Rocket 3.8 20:12:06 10° NNW 20:16:36 71° W 20:16:36 71° W
NOSS 3-1 (C) 4.3 20:19:21 10° NW 20:26:15 45° NE 20:27:01 44° NE
Cosmos 2360 Rocket 2.9 20:21:14 10° NW 20:26:41 50° WSW 20:28:48 33° SSW
Cosmos 1570 Rocket 4.1 20:22:59 10° NNW 20:28:07 74° W 20:28:07 74° W
Cosmos 2219 Rocket 2.8 20:26:28 10° NNW 20:30:39 45° N 20:30:39 45° N
SL-16 R/B 4.0 20:32:10 10° N 20:34:49 20° NNE 20:34:49 20° NNE
Cosmos 1833 4.4 20:38:38 10° SW 20:43:59 66° W 20:43:59 66° W
Cosmos 2333 Rocket 3.1 20:39:54 10° NNW 20:43:50 42° N 20:43:50 42° N
H-2A R/B 4.3 21:19:59 17° N 21:19:59 17° N 21:21:17 10° N
COSMOS 2428 4.4 21:28:36 10° NW 21:32:15 29° W 21:32:15 29° W
Cosmos 2237 Rocket 4.2 21:46:03 10° NNW 21:48:10 23° NW 21:48:10 23° NW
USA 215 4.4 21:55:40 38° NW 21:55:40 38° NW 21:59:30 10° NW
ATLAS 2AS CENTAUR R/B 4.1 21:53:43 10° NW 21:59:21 37° N 21:59:21 37° N
